• In United Kingdom
  • List of Countries
  • For 7 days
  • Water Temperature
  • Satellite Maps
  • Weather Map
  • Weather Widgets
  • user-avatar
    Login

    Hourly Weather Mayrhofen

    Today, 21 September, Thursday

    Time Temperature Precipitation Wind Pressure Humidity
    00:00 -2°C° 0 mm 1 mps 618 mmHg 92%
    01:00 -2°C° 0 mm 1 mps 617 mmHg 91%
    02:00 -2°C° 0 mm 1 mps 617 mmHg 88%
    03:00 -2°C° 0 mm 1 mps 617 mmHg 86%
    04:00 -2°C° 0 mm 1 mps 617 mmHg 84%
    05:00 -2°C° 0 mm 1 mps 617 mmHg 80%
    06:00 -1°C° 0 mm 1 mps 617 mmHg 76%
    07:00 0°C° 0 mm 1 mps 618 mmHg 73%
    08:00 +2°C° 0 mm 1 mps 618 mmHg 68%
    09:00 +5°C° 0 mm 1 mps 619 mmHg 63%
    10:00 +8°C° 0 mm 1 mps 620 mmHg 58%
    11:00 +9°C° 0 mm 1 mps 620 mmHg 57%
    12:00 +10°C° 0 mm 1 mps 620 mmHg 56%
    13:00 +10°C° 0 mm 2 mps 620 mmHg 55%
    14:00 +9°C° 0 mm 2 mps 620 mmHg 56%
    15:00 +9°C° 0 mm 2 mps 620 mmHg 58%
    16:00 +9°C° 0 mm 2 mps 619 mmHg 59%
    17:00 +7°C° 0 mm 1 mps 619 mmHg 67%
    18:00 +5°C° 0 mm 1 mps 618 mmHg 74%
    19:00 +2°C° 0 mm 1 mps 617 mmHg 82%
    20:00 +2°C° 0 mm 1 mps 617 mmHg 81%
    21:00 +2°C° 0 mm 1 mps 618 mmHg 80%
    22:00 +1°C° 0 mm 1 mps 618 mmHg 79%
    23:00 +1°C° 0 mm 1 mps 618 mmHg 76%

    Tomorrow, 22 September, Friday

    Time Temperature Precipitation Wind Pressure Humidity
    00:00 +2°C° 0 mm 1 mps 618 mmHg 73%
    01:00 +2°C° 0 mm 1 mps 618 mmHg 70%
    02:00 +2°C° 0 mm 1 mps 618 mmHg 68%
    03:00 +2°C° 0 mm 1 mps 618 mmHg 67%
    04:00 +2°C° 0 mm 1 mps 618 mmHg 65%
    05:00 +2°C° 0 mm 1 mps 618 mmHg 64%
    06:00 +3°C° 0 mm 1 mps 618 mmHg 63%
    07:00 +4°C° 0 mm 1 mps 619 mmHg 62%
    08:00 +6°C° 0 mm 1 mps 620 mmHg 60%
    09:00 +9°C° 0 mm 1 mps 621 mmHg 58%
    10:00 +12°C° 0 mm 1 mps 622 mmHg 56%
    11:00 +13°C° 0 mm 1 mps 622 mmHg 55%
    12:00 +13°C° 0 mm 1 mps 622 mmHg 55%
    13:00 +14°C° 0 mm 2 mps 622 mmHg 54%
    14:00 +13°C° 0 mm 2 mps 622 mmHg 57%
    15:00 +13°C° 0 mm 2 mps 622 mmHg 60%
    16:00 +12°C° 0 mm 2 mps 621 mmHg 63%
    17:00 +9°C° 0 mm 2 mps 621 mmHg 71%
    18:00 +7°C° 0 mm 1 mps 620 mmHg 79%
    19:00 +5°C° 0 mm 1 mps 620 mmHg 86%
    20:00 +5°C° 0 mm 1 mps 620 mmHg 87%
    21:00 +4°C° 0 mm 1 mps 620 mmHg 88%
    22:00 +4°C° 0 mm 1 mps 620 mmHg 89%
    23:00 +4°C° 0 mm 1 mps 620 mmHg 89%

    Day after tomorrow, 23 September, Saturday

    Time Temperature Precipitation Wind Pressure Humidity
    00:00 +4°C° 0 mm 1 mps 620 mmHg 89%
    01:00 +4°C° 0 mm 1 mps 620 mmHg 88%
    02:00 +4°C° 0 mm 1 mps 620 mmHg 88%
    03:00 +4°C° 0 mm 1 mps 620 mmHg 88%
    04:00 +4°C° 0 mm 1 mps 620 mmHg 87%
    05:00 +5°C° 0.1 mm 1 mps 620 mmHg 87%
    06:00 +5°C° 0.1 mm 1 mps 620 mmHg 86%
    07:00 +5°C° 0.1 mm 1 mps 621 mmHg 85%
    08:00 +7°C° 0.1 mm 1 mps 621 mmHg 79%
    09:00 +9°C° 0.1 mm 1 mps 622 mmHg 74%
    10:00 +10°C° 0.1 mm 0 mps 622 mmHg 68%
    11:00 +10°C° 0.1 mm 0 mps 622 mmHg 67%
    12:00 +12°C° 0.1 mm 1 mps 622 mmHg 65%
    13:00 +12°C° 0.1 mm 1 mps 622 mmHg 64%
    14:00 +12°C° 0.4 mm 1 mps 622 mmHg 68%
    15:00 +11°C° 0.4 mm 1 mps 621 mmHg 73%
    16:00 +11°C° 0.4 mm 1 mps 621 mmHg 78%
    17:00 +8°C° 0.4 mm 0 mps 620 mmHg 83%
    18:00 +6°C° 0.4 mm 0 mps 620 mmHg 88%
    19:00 +5°C° 0.4 mm 0 mps 619 mmHg 93%
    20:00 +5°C° 0.2 mm 0 mps 619 mmHg 93%
    21:00 +4°C° 0.2 mm 0 mps 619 mmHg 93%
    22:00 +4°C° 0.2 mm 0 mps 619 mmHg 94%
    23:00 +3°C° 0 mm 0 mps 619 mmHg 94%

    24 September, Sunday

    Time Temperature Precipitation Wind Pressure Humidity
    00:00 +4°C° 0 mm 1 mps 619 mmHg 94%
    01:00 +3°C° 0 mm 1 mps 619 mmHg 94%
    02:00 +3°C° 0 mm 1 mps 618 mmHg 94%
    03:00 +3°C° 0 mm 1 mps 618 mmHg 94%
    04:00 +3°C° 0 mm 1 mps 618 mmHg 94%
    05:00 +3°C° 0 mm 1 mps 618 mmHg 93%
    06:00 +4°C° 0 mm 1 mps 619 mmHg 93%
    07:00 +4°C° 0 mm 1 mps 619 mmHg 92%
    08:00 +6°C° 0 mm 1 mps 620 mmHg 85%
    09:00 +8°C° 0 mm 1 mps 621 mmHg 78%
    10:00 +10°C° 0 mm 1 mps 621 mmHg 72%
    11:00 +11°C° 0.2 mm 1 mps 621 mmHg 69%
    12:00 +11°C° 0.2 mm 1 mps 621 mmHg 66%
    13:00 +12°C° 0.2 mm 2 mps 622 mmHg 63%
    14:00 +12°C° 0.4 mm 2 mps 621 mmHg 67%
    15:00 +10°C° 0.4 mm 2 mps 621 mmHg 70%
    16:00 +10°C° 0.4 mm 2 mps 621 mmHg 73%
    17:00 +8°C° 0.1 mm 2 mps 620 mmHg 79%
    18:00 +7°C° 0.1 mm 1 mps 620 mmHg 85%
    19:00 +5°C° 0.1 mm 1 mps 619 mmHg 91%
    20:00 +4°C° 0 mm 1 mps 619 mmHg 92%
    21:00 +4°C° 0 mm 1 mps 619 mmHg 93%
    22:00 +3°C° 0 mm 1 mps 619 mmHg 94%
    23:00 +3°C° 0 mm 1 mps 619 mmHg 92%

    25 September, Monday

    Time Temperature Precipitation Wind Pressure Humidity
    00:00 +3°C° 0 mm 1 mps 618 mmHg 91%
    01:00 +2°C° 0 mm 1 mps 618 mmHg 89%
    02:00 +2°C° 0 mm 1 mps 618 mmHg 86%
    03:00 +2°C° 0 mm 1 mps 618 mmHg 83%
    04:00 +2°C° 0 mm 1 mps 617 mmHg 80%
    05:00 +2°C° 0 mm 1 mps 618 mmHg 78%
    06:00 +3°C° 0 mm 1 mps 618 mmHg 76%
    07:00 +3°C° 0 mm 1 mps 618 mmHg 74%
    08:00 +6°C° 0 mm 1 mps 619 mmHg 68%
    09:00 +8°C° 0 mm 1 mps 620 mmHg 61%
    10:00 +11°C° 0 mm 1 mps 620 mmHg 55%
    11:00 +12°C° 0 mm 1 mps 620 mmHg 52%
    12:00 +13°C° 0 mm 1 mps 620 mmHg 50%
    13:00 +13°C° 0 mm 1 mps 620 mmHg 48%
    14:00 +13°C° 0 mm 1 mps 620 mmHg 50%
    15:00 +13°C° 0 mm 1 mps 620 mmHg 52%
    16:00 +12°C° 0 mm 1 mps 619 mmHg 54%
    17:00 +10°C° 0 mm 1 mps 618 mmHg 64%
    18:00 +7°C° 0 mm 1 mps 617 mmHg 74%
    19:00 +3°C° 0 mm 0 mps 616 mmHg 84%
    20:00 +4°C° 0 mm 1 mps 616 mmHg 84%
    21:00 +4°C° 0 mm 1 mps 616 mmHg 84%
    22:00 +4°C° 0 mm 1 mps 616 mmHg 84%
    23:00 +4°C° 0 mm 1 mps 616 mmHg 84%

    26 September, Tuesday

    Time Temperature Precipitation Wind Pressure Humidity
    00:00 +3°C° 0 mm 2 mps 616 mmHg 84%
    01:00 +3°C° 0 mm 2 mps 616 mmHg 83%
    02:00 +2°C° 0 mm 2 mps 616 mmHg 85%
    03:00 +2°C° 0 mm 2 mps 616 mmHg 86%
    04:00 +3°C° 0 mm 1 mps 616 mmHg 87%
    05:00 +3°C° 0 mm 1 mps 616 mmHg 87%
    06:00 +4°C° 0 mm 1 mps 616 mmHg 86%
    07:00 +4°C° 0 mm 1 mps 617 mmHg 86%
    08:00 +6°C° 0 mm 1 mps 617 mmHg 79%
    09:00 +8°C° 0 mm 1 mps 618 mmHg 71%
    10:00 +10°C° 0 mm 1 mps 619 mmHg 64%
    11:00 +11°C° 0 mm 1 mps 619 mmHg 61%
    12:00 +10°C° 0 mm 2 mps 619 mmHg 59%
    13:00 +12°C° 0 mm 2 mps 619 mmHg 56%
    14:00 +12°C° 0 mm 2 mps 619 mmHg 59%
    15:00 +10°C° 0 mm 2 mps 619 mmHg 62%
    16:00 +10°C° 0 mm 2 mps 619 mmHg 65%
    17:00 +8°C° 0.1 mm 2 mps 618 mmHg 74%
    18:00 +7°C° 0.1 mm 1 mps 617 mmHg 82%
    19:00 +5°C° 0.1 mm 1 mps 617 mmHg 91%
    20:00 +5°C° 0 mm 1 mps 617 mmHg 91%
    21:00 +4°C° 0 mm 2 mps 617 mmHg 91%
    22:00 +3°C° 0 mm 2 mps 617 mmHg 92%
    23:00 +3°C° 0 mm 2 mps 617 mmHg 92%
    Show more